• In Lithuania
  • List of Countries
  • For 7 days
  • Water Temperature
  • Satellite Maps
  • Weather Map
  • Weather Widgets
  • user-avatar
    Login

    Hourly Weather Liege

    Today, 19 September, Wednesday

    Time Temperature Precipitation Wind Pressure Humidity
    00:00 +18°C° 0 mm 1 mps 753 mmHg 90%
    01:00 +18°C° 0 mm 1 mps 753 mmHg 90%
    02:00 +17°C° 0 mm 2 mps 753 mmHg 91%
    03:00 +16°C° 0 mm 2 mps 753 mmHg 91%
    04:00 +17°C° 0 mm 2 mps 753 mmHg 90%
    05:00 +17°C° 0 mm 2 mps 753 mmHg 89%
    06:00 +17°C° 0 mm 3 mps 754 mmHg 86%
    07:00 +19°C° 0 mm 4 mps 754 mmHg 80%
    08:00 +21°C° 0 mm 5 mps 754 mmHg 74%
    09:00 +23°C° 0 mm 5 mps 754 mmHg 68%
    10:00 +24°C° 0 mm 6 mps 754 mmHg 64%
    11:00 +26°C° 0 mm 6 mps 754 mmHg 60%
    12:00 +27°C° 0 mm 6 mps 754 mmHg 56%
    13:00 +27°C° 0 mm 6 mps 754 mmHg 56%
    14:00 +27°C° 0 mm 6 mps 753 mmHg 55%
    15:00 +27°C° 0 mm 5 mps 753 mmHg 55%
    16:00 +25°C° 0 mm 4 mps 753 mmHg 61%
    17:00 +22°C° 0 mm 4 mps 753 mmHg 68%
    18:00 +20°C° 0 mm 3 mps 754 mmHg 74%
    19:00 +19°C° 0 mm 3 mps 754 mmHg 77%
    20:00 +19°C° 0 mm 2 mps 754 mmHg 81%
    21:00 +18°C° 0 mm 2 mps 754 mmHg 84%
    22:00 +17°C° 0 mm 2 mps 754 mmHg 85%
    23:00 +17°C° 0 mm 2 mps 754 mmHg 86%

    Tomorrow, 20 September, Thursday

    Time Temperature Precipitation Wind Pressure Humidity
    00:00 +17°C° 0 mm 2 mps 754 mmHg 87%
    01:00 +16°C° 0 mm 2 mps 754 mmHg 88%
    02:00 +16°C° 0 mm 2 mps 754 mmHg 90%
    03:00 +16°C° 0 mm 2 mps 754 mmHg 91%
    04:00 +15°C° 0 mm 2 mps 754 mmHg 91%
    05:00 +14°C° 0 mm 3 mps 754 mmHg 92%
    06:00 +14°C° 0 mm 3 mps 754 mmHg 92%
    07:00 +17°C° 0 mm 3 mps 754 mmHg 84%
    08:00 +19°C° 0 mm 4 mps 754 mmHg 76%
    09:00 +21°C° 0 mm 5 mps 755 mmHg 68%
    10:00 +22°C° 0 mm 5 mps 754 mmHg 64%
    11:00 +23°C° 0 mm 5 mps 754 mmHg 60%
    12:00 +25°C° 0 mm 5 mps 753 mmHg 55%
    13:00 +26°C° 0 mm 5 mps 753 mmHg 55%
    14:00 +26°C° 0 mm 5 mps 752 mmHg 54%
    15:00 +26°C° 0 mm 5 mps 752 mmHg 53%
    16:00 +25°C° 0 mm 4 mps 751 mmHg 59%
    17:00 +22°C° 0 mm 3 mps 751 mmHg 65%
    18:00 +20°C° 0 mm 3 mps 750 mmHg 71%
    19:00 +20°C° 0 mm 3 mps 750 mmHg 70%
    20:00 +20°C° 0 mm 3 mps 749 mmHg 70%
    21:00 +20°C° 0 mm 4 mps 749 mmHg 69%
    22:00 +20°C° 0 mm 4 mps 748 mmHg 66%
    23:00 +21°C° 0 mm 5 mps 748 mmHg 63%

    Day after tomorrow, 21 September, Friday

    Time Temperature Precipitation Wind Pressure Humidity
    00:00 +21°C° 0 mm 5 mps 748 mmHg 60%
    01:00 +21°C° 0 mm 6 mps 747 mmHg 59%
    02:00 +21°C° 0 mm 6 mps 747 mmHg 59%
    03:00 +20°C° 0 mm 6 mps 746 mmHg 58%
    04:00 +20°C° 0.1 mm 7 mps 746 mmHg 60%
    05:00 +20°C° 0.1 mm 7 mps 746 mmHg 63%
    06:00 +20°C° 0.1 mm 7 mps 746 mmHg 65%
    07:00 +17°C° 1.6 mm 7 mps 747 mmHg 71%
    08:00 +15°C° 1.6 mm 6 mps 747 mmHg 76%
    09:00 +14°C° 1.6 mm 6 mps 748 mmHg 82%
    10:00 +14°C° 0.1 mm 6 mps 749 mmHg 72%
    11:00 +15°C° 0.1 mm 6 mps 750 mmHg 62%
    12:00 +16°C° 0.1 mm 6 mps 750 mmHg 53%
    13:00 +16°C° 0 mm 6 mps 751 mmHg 52%
    14:00 +16°C° 0 mm 6 mps 751 mmHg 51%
    15:00 +16°C° 0 mm 6 mps 751 mmHg 50%
    16:00 +15°C° 0 mm 6 mps 752 mmHg 53%
    17:00 +14°C° 0 mm 5 mps 752 mmHg 57%
    18:00 +13°C° 0 mm 4 mps 752 mmHg 60%
    19:00 +12°C° 0 mm 4 mps 753 mmHg 62%
    20:00 +12°C° 0 mm 4 mps 753 mmHg 63%
    21:00 +10°C° 0 mm 5 mps 754 mmHg 65%
    22:00 +11°C° 0 mm 4 mps 754 mmHg 67%
    23:00 +11°C° 0 mm 4 mps 754 mmHg 70%

    22 September, Saturday

    Time Temperature Precipitation Wind Pressure Humidity
    00:00 +10°C° 0 mm 4 mps 754 mmHg 72%
    01:00 +10°C° 0 mm 4 mps 755 mmHg 75%
    02:00 +10°C° 0 mm 4 mps 755 mmHg 78%
    03:00 +8°C° 0 mm 4 mps 755 mmHg 81%
    04:00 +8°C° 0 mm 4 mps 755 mmHg 82%
    05:00 +8°C° 0 mm 4 mps 756 mmHg 84%
    06:00 +8°C° 0 mm 4 mps 756 mmHg 85%
    07:00 +10°C° 0 mm 4 mps 756 mmHg 77%
    08:00 +12°C° 0 mm 5 mps 756 mmHg 68%
    09:00 +14°C° 0 mm 5 mps 757 mmHg 60%
    10:00 +15°C° 0 mm 5 mps 757 mmHg 57%
    11:00 +15°C° 0 mm 5 mps 756 mmHg 54%
    12:00 +16°C° 0 mm 5 mps 756 mmHg 52%
    13:00 +16°C° 0.1 mm 5 mps 756 mmHg 51%
    14:00 +16°C° 0.1 mm 5 mps 756 mmHg 51%
    15:00 +17°C° 0.1 mm 4 mps 756 mmHg 51%
    16:00 +14°C° 0 mm 3 mps 756 mmHg 57%
    17:00 +14°C° 0 mm 2 mps 756 mmHg 63%
    18:00 +12°C° 0 mm 1 mps 756 mmHg 69%
    19:00 +12°C° 0 mm 1 mps 756 mmHg 70%
    20:00 +12°C° 0 mm 1 mps 756 mmHg 71%
    21:00 +11°C° 0 mm 1 mps 756 mmHg 72%
    22:00 +12°C° 0 mm 1 mps 756 mmHg 72%
    23:00 +12°C° 0 mm 1 mps 755 mmHg 72%

    23 September, Sunday

    Time Temperature Precipitation Wind Pressure Humidity
    00:00 +12°C° 0 mm 2 mps 754 mmHg 72%
    01:00 +12°C° 0.4 mm 2 mps 754 mmHg 77%
    02:00 +10°C° 0.4 mm 3 mps 753 mmHg 82%
    03:00 +10°C° 0.4 mm 3 mps 752 mmHg 87%
    04:00 +10°C° 0.2 mm 4 mps 751 mmHg 86%
    05:00 +9°C° 0.2 mm 5 mps 749 mmHg 86%
    06:00 +10°C° 0.2 mm 7 mps 748 mmHg 85%
    07:00 +10°C° 0.3 mm 7 mps 746 mmHg 82%
    08:00 +11°C° 0.3 mm 8 mps 744 mmHg 79%
    09:00 +12°C° 0.3 mm 9 mps 742 mmHg 76%
    10:00 +15°C° 0.4 mm 9 mps 740 mmHg 77%
    11:00 +16°C° 0.4 mm 10 mps 739 mmHg 78%
    12:00 +18°C° 0.4 mm 10 mps 737 mmHg 79%
    13:00 +18°C° 1.3 mm 10 mps 736 mmHg 78%
    14:00 +18°C° 1.3 mm 10 mps 735 mmHg 78%
    15:00 +18°C° 1.3 mm 9 mps 734 mmHg 78%
    16:00 +17°C° 0 mm 10 mps 734 mmHg 72%
    17:00 +14°C° 0 mm 10 mps 733 mmHg 66%
    18:00 +13°C° 0 mm 10 mps 733 mmHg 60%
    19:00 +12°C° 0.2 mm 10 mps 733 mmHg 64%
    20:00 +11°C° 0.2 mm 10 mps 732 mmHg 69%
    21:00 +11°C° 0.2 mm 11 mps 732 mmHg 74%
    22:00 +11°C° 0.9 mm 10 mps 732 mmHg 80%
    23:00 +11°C° 0.9 mm 9 mps 733 mmHg 85%

    24 September, Monday

    Time Temperature Precipitation Wind Pressure Humidity
    00:00 +11°C° 0.9 mm 8 mps 733 mmHg 91%
    01:00 +10°C° 1 mm 9 mps 735 mmHg 89%
    02:00 +9°C° 1 mm 10 mps 737 mmHg 87%
    03:00 +8°C° 1 mm 11 mps 739 mmHg 85%
    04:00 +8°C° 0.2 mm 10 mps 742 mmHg 84%
    05:00 +8°C° 0.2 mm 9 mps 744 mmHg 83%
    06:00 +8°C° 0.2 mm 9 mps 747 mmHg 81%
    07:00 +8°C° 0.2 mm 9 mps 748 mmHg 78%
    08:00 +10°C° 0.2 mm 9 mps 750 mmHg 75%
    09:00 +11°C° 0.2 mm 9 mps 751 mmHg 71%
    10:00 +11°C° 0.4 mm 9 mps 752 mmHg 70%
    11:00 +11°C° 0.4 mm 9 mps 753 mmHg 68%
    12:00 +11°C° 0.4 mm 9 mps 754 mmHg 67%
    13:00 +11°C° 0.4 mm 8 mps 755 mmHg 68%
    14:00 +11°C° 0.4 mm 8 mps 756 mmHg 69%
    15:00 +10°C° 0.4 mm 7 mps 757 mmHg 70%
    16:00 +9°C° 0.3 mm 6 mps 758 mmHg 73%
    17:00 +8°C° 0.3 mm 5 mps 758 mmHg 77%
    18:00 +8°C° 0.3 mm 4 mps 759 mmHg 80%
    19:00 +7°C° 0.2 mm 4 mps 760 mmHg 81%
    20:00 +7°C° 0.2 mm 4 mps 761 mmHg 83%
    21:00 +7°C° 0.2 mm 4 mps 762 mmHg 84%
    22:00 +7°C° 0.1 mm 3 mps 762 mmHg 85%
    23:00 +7°C° 0.1 mm 3 mps 762 mmHg 86%
    Show more